Location: Unspecified
(34.4950°S, 58.5160°W)
Time: 15:14:37
(UTC+00:00)

Cosmos 1655 Rocket - Pass Details

Date: 06 July 2022
Orbit: 971 x 1005 km, 83.0° (Epoch: 11 August)

Event Time Altitude Azimuth Distance (km) Brightness Sun altitude
Rises 08:38:56 0° 166° (SSE) 3,739 7.1 -28.6°
Reaches altitude 10° 08:42:50 10° 143° (SE) 2,774 6.7 -27.8°
Maximum altitude 08:46:17 15° 110° (ESE) 2,413 6.7 -27.1°
Drops below altitude 10° 08:49:42 10° 76° (ENE) 2,744 7.4 -26.4°
Sets 08:53:28 0° 54° (NE) 3,675 8.0 -25.6°
